Regional Weather Roundup
Issued by NWS Cleveland, OH

Home | Current Version | Previous Version | Text Only | Print | Product List | Glossary Off
Versions: 1 2 3 4 5 6 7 8 9 10 11 12 13 14 15 16 17 18 19 20 21 22 23 24 25 26 27 28 29 30 31 32 33 34 35 36 37 38 39 40 41 42 43 44 45 46 47 48 49 50

640
ASUS41 KCLE 271712
RWRCLE
OHIO REGIONAL WEATHER ROUNDUP
NATIONAL WEATHER SERVICE WILMINGTON, OH
100 PM EDT SUN MAY 27 2018

NOTE: "FAIR" INDICATES FEW OR NO CLOUDS BELOW 12,000 FEET WITH NO
SIGNIFICANT WEATHER AND/OR OBSTRUCTIONS TO VISIBILITY.

OHZ001>008-015>018-024>027-034-035-043-044-271800-
   NORTHWEST OHIO

CITY           SKY/WX    TMP DP  RH WIND       PRES   REMARKS
DEFIANCE       FAIR      86  63  45 VRB3      29.90F
FINDLAY        FAIR      86  64  47 SW3       29.90F
TOLEDO EXPRESS FAIR      87  63  44 CALM      29.89F
TOLEDO EXEC    FAIR      86  64  47 CALM      29.90F
LIMA           FAIR      86  62  44 NW6       29.92S
$$

OHZ009>014-019>023-028>033-038-089-271800-
   NORTHEAST OHIO

CITY           SKY/WX    TMP DP  RH WIND       PRES   REMARKS
CLE-HOPKINS    FAIR      84  68  58 CALM      29.94F
CLE-LAKEFRONT  FAIR      77  68  73 N8        29.92S
CUY CO. ARPT   PTSUNNY   84  70  61 N5        29.94S
LORAIN-ELYRIA  FAIR      81  63  54 VRB5      29.92F
ASHTABULA      FAIR      80  66  62 S6        29.94F
AKRON-CANTON   PTSUNNY   80  67  64 VRB5      29.96S
WOOSTER        FAIR      78  69  73 VRB5      29.96S
MANSFIELD      FAIR      82  65  56 N5        29.95S
YOUNGSTOWN     PTSUNNY   76  67  73 SW5       29.95F
$$

OHZ042-051>053-060>062-070>072-077>081-271800-
  SOUTHWEST OHIO

CITY           SKY/WX    TMP DP  RH WIND       PRES   REMARKS
CINC-COVINGTON FAIR      83  71  67 S7        29.94S
CINC-LUNKEN    FAIR      83  73  72 S5        29.93F
HAMILTON       FAIR      86  72  62 CALM      29.94S HX  92
DAYTON         FAIR      83  70  64 W7        29.94F
WRIGHT-PAT AFB FAIR      85  68  56 CALM      29.93S
DAYTON GENERAL FAIR      85  69  58 SW6       29.93F
WILMINGTON     FAIR      83  71  67 CALM      29.94S
$$

OHZ036-037-039>041-045>050-054>059-063>069-073>076-082>088-271800-
  CENTRAL AND SOUTHEAST OHIO

CITY           SKY/WX    TMP DP  RH WIND       PRES   REMARKS
COLUMBUS       PTSUNNY   82  66  58 CALM      29.92F
OSU AIRPORT    FAIR      83  67  58 W3        29.93S
BOLTON FIELD   MOSUNNY   82  70  65 S8        29.94F
RICKENBACK AFB FAIR      82  69  65 MISG      29.93S
NEWARK         FAIR      83  69  62 N3        29.93F
MARION         FAIR      85  65  51 VRB5      29.94S
LANCASTER      FAIR      84  71  65 NW6       29.94F
ZANESVILLE     PTSUNNY   78  68  71 CALM      29.95F
NEW PHILLY     CLOUDY    76  67  73 CALM      29.96S
$$




USA.gov is the U.S. government's official web portal to all federal, state and local government web resources and services.